SCP
0 0 0 0 0 0 0 0 0 0 0 0 0 0 0 0 0 0 0 0 0 0
0 0 0 0 0 0 0 0 0 0 0 0 0 0 0 0 0 0 0 0 0 0
0 0 0 0 0 0 0 0 0 0 0 0 0 0 0 0 0 0 0 0 0 0
0 0 0 0 0 0 0 0 0 0 0 0 0 0 0 0 0 0 0 0 0 0
0 -0 0 0 0 0 0 0 0 0 0 0 0 0 0 0 0 0 0 0 0 0
0 0 0 0 0 0 0 0 0 0 0 0 0 0 0 0 0 0 0 0 0 0
-0 0 0 0 0 0 0 0 0 0 0 0 0 0 0 0 0 0 0 0 0 0
-0 -0 -0 -0 0 0 0 0 0 0 0 0 0 0 0 0 0 0 0 0 0 0
-0 0 -0 -0 -0 -0 -0 0 0 0 0 0 0 0 0 0 0 0 0 0 0 0
-0 -0 0 -0 -0 -0 0 0 0 0 0 0 0 0 0 0 0 0 0 0 0 0
-0 0 0 0 0 0 0 0 0 0 0 0 0 0 0 0 0 0 0 0 0 0
0 0 -0 0 0 0 0 0 0 0 0 0 0 0 0 0 0 0 0 0 0 0
-0 0 0 0 0 0 0 0 0 0 0 0 0 0 0 0 0 0 0 0 0 0
-0 -0 -0 -0 0 0 0 0 0 0 0 0 0 0 0 0 0 0 0 0 0 0
Wind_Speed_500mb
57 69 75 71 71 73 74 76 85 94 99 99 97 94 90 88 85 83 81 76 69 62
45 55 62 67 65 68 70 71 76 83 93 97 97 97 96 94 93 88 85 81 75 70
39 50 56 57 54 57 63 70 72 75 84 92 97 99 100 100 98 94 92 88 83 79
39 40 48 58 54 57 63 70 73 74 80 89 94 101 105 106 104 100 98 95 93 88
49 48 43 48 51 52 61 68 76 79 81 87 93 96 106 114 112 109 107 104 101 96
54 55 50 50 48 49 56 63 72 82 87 91 94 98 102 111 115 114 111 108 106 103
63 58 59 58 53 54 53 59 66 78 83 91 96 101 104 109 115 116 116 115 111 111
68 66 67 62 62 61 62 63 62 72 81 92 97 101 106 110 117 121 121 123 120 117
66 70 69 71 70 68 69 67 63 70 76 89 102 103 104 108 114 119 124 131 128 124
81 73 71 70 71 75 70 72 68 65 72 81 91 99 104 108 113 117 121 129 132 132
89 89 83 77 74 71 72 68 70 65 67 72 82 88 96 100 109 118 117 121 129 131
90 93 94 89 87 85 77 72 63 67 64 67 75 79 77 87 103 112 119 116 121 127
94 97 98 98 97 93 86 80 67 66 68 65 68 68 74 79 87 112 121 112 117 122
105 104 105 107 106 106 100 91 80 68 67 69 67 67 68 71 90 99 113 113 116 121
Wind_Direction_500mb
278 271 264 257 252 249 245 242 239 235 232 232 232 230 229 229 229 229 229 229 229 233
297 283 275 267 261 257 254 251 246 239 237 235 233 230 229 229 230 229 230 230 230 232
313 298 284 277 269 264 260 255 252 247 242 239 236 232 229 230 229 228 229 229 230 232
323 306 291 282 276 269 262 258 255 251 248 243 237 235 232 231 230 228 228 229 230 231
340 320 306 300 293 285 276 267 261 254 251 248 243 238 236 234 231 228 227 228 229 230
348 349 333 310 296 289 286 278 266 259 253 249 246 242 238 237 235 232 230 230 231 231
351 351 345 339 319 299 290 283 275 265 260 255 250 246 242 238 236 234 233 233 231 232
334 337 341 340 341 332 307 291 282 276 265 256 250 246 244 240 238 235 233 233 232 232
332 333 332 333 335 336 331 310 289 279 273 264 256 249 245 242 241 239 237 235 232 231
335 329 330 327 326 326 323 325 312 287 278 270 266 259 252 246 242 240 239 239 236 233
330 330 326 325 320 316 313 311 316 311 288 277 271 266 260 253 248 244 241 241 240 237
322 323 324 323 320 317 310 301 303 309 306 285 274 268 263 257 250 243 241 239 240 238
313 314 314 315 317 315 310 301 298 299 303 299 282 270 264 251 245 245 239 235 239 239
306 307 306 307 308 310 310 307 297 289 292 297 289 272 260 249 237 244 242 239 235 234
Wind_Speed_850mb
57 69 75 71 71 73 74 76 85 94 99 99 97 94 90 88 85 83 81 76 69 62
45 55 62 67 65 68 70 71 76 83 93 97 97 97 96 94 93 88 85 81 75 70
39 50 56 57 54 57 63 70 72 75 84 92 97 99 100 100 98 94 92 88 83 79
39 40 48 58 54 57 63 70 73 74 80 89 94 101 105 106 104 100 98 95 93 88
49 48 43 48 51 52 61 68 76 79 81 87 93 96 106 114 112 109 107 104 101 96
54 55 50 50 48 49 56 63 72 82 87 91 94 98 102 111 115 114 111 108 106 103
63 58 59 58 53 54 53 59 66 78 83 91 96 101 104 109 115 116 116 115 111 111
68 66 67 62 62 61 62 63 62 72 81 92 97 101 106 110 117 121 121 123 120 117
66 70 69 71 70 68 69 67 63 70 76 89 102 103 104 108 114 119 124 131 128 124
81 73 71 70 71 75 70 72 68 65 72 81 91 99 104 108 113 117 121 129 132 132
89 89 83 77 74 71 72 68 70 65 67 72 82 88 96 100 109 118 117 121 129 131
90 93 94 89 87 85 77 72 63 67 64 67 75 79 77 87 103 112 119 116 121 127
94 97 98 98 97 93 86 80 67 66 68 65 68 68 74 79 87 112 121 112 117 122
105 104 105 107 106 106 100 91 80 68 67 69 67 67 68 71 90 99 113 113 116 121
Wind_Direction_850mb
278 271 264 257 252 249 245 242 239 235 232 232 232 230 229 229 229 229 229 229 229 233
297 283 275 267 261 257 254 251 246 239 237 235 233 230 229 229 230 229 230 230 230 232
313 298 284 277 269 264 260 255 252 247 242 239 236 232 229 230 229 228 229 229 230 232
323 306 291 282 276 269 262 258 255 251 248 243 237 235 232 231 230 228 228 229 230 231
340 320 306 300 293 285 276 267 261 254 251 248 243 238 236 234 231 228 227 228 229 230
348 349 333 310 296 289 286 278 266 259 253 249 246 242 238 237 235 232 230 230 231 231
351 351 345 339 319 299 290 283 275 265 260 255 250 246 242 238 236 234 233 233 231 232
334 337 341 340 341 332 307 291 282 276 265 256 250 246 244 240 238 235 233 233 232 232
332 333 332 333 335 336 331 310 289 279 273 264 256 249 245 242 241 239 237 235 232 231
335 329 330 327 326 326 323 325 312 287 278 270 266 259 252 246 242 240 239 239 236 233
330 330 326 325 320 316 313 311 316 311 288 277 271 266 260 253 248 244 241 241 240 237
322 323 324 323 320 317 310 301 303 309 306 285 274 268 263 257 250 243 241 239 240 238
313 314 314 315 317 315 310 301 298 299 303 299 282 270 264 251 245 245 239 235 239 239
306 307 306 307 308 310 310 307 297 289 292 297 289 272 260 249 237 244 242 239 235 234